SCP
0 0 0 0 0 0 0 0 -0 -0 0 0 0 0 -0 -0 0 0 0 0 0 0 0 0 -0 -0 -0 -0 -0 -0 -0 -0
0 0 0 0 0 0 0 0 0 0 0 0 0 0 0 0 0 0 0 0 1 1 0 0 0 0 0 -0 -0 -0 -0 0
0 0 0 0 0 0 0 0 0 0 0 0 0 0 1 0 0 0 0 0 1 1 1 0 0 0 0 0 0 0 0 0
0 0 0 0 0 0 0 0 0 0 0 0 0 0 0 0 0 0 0 1 1 1 1 1 0 0 0 0 0 0 0 0
0 0 0 0 0 0 0 0 0 0 0 0 0 0 -0 -0 0 0 0 1 1 1 1 1 1 1 1 0 0 0 0 0
0 0 0 0 0 0 0 0 0 0 0 0 0 0 0 0 0 0 1 1 1 1 1 1 1 1 1 1 0 0 0 0
0 0 0 0 0 0 0 0 0 0 0 0 0 0 0 0 0 0 1 1 1 1 1 1 1 1 1 1 1 1 0 0
0 0 0 0 0 0 0 0 0 0 0 0 0 0 0 0 0 0 0 1 1 1 1 1 1 1 2 1 2 2 1 1
0 0 0 0 0 0 0 0 0 0 0 0 0 0 0 0 0 0 0 0 0 1 1 1 1 1 1 1 2 2 2 1
0 0 0 0 0 0 0 0 0 0 0 0 0 0 0 0 0 0 0 0 0 1 2 2 2 2 1 1 1 1 1 1
0 0 0 0 0 0 0 0 0 0 0 0 0 0 0 0 0 0 0 0 0 0 1 1 2 2 2 2 1 1 1 1
0 0 0 0 0 0 0 0 0 0 0 -0 -0 0 0 0 0 0 0 0 0 0 0 1 1 2 2 2 2 1 1 1
0 0 0 0 0 0 0 0 0 0 0 0 0 0 0 0 -0 -0 0 0 0 0 0 0 0 2 2 2 2 1 1 1
0 0 0 0 0 0 0 0 0 0 0 0 0 0 0 0 0 0 0 0 0 0 0 0 0 1 2 3 3 2 2 1
0 0 0 0 0 0 0 0 0 0 0 0 0 0 0 0 0 0 0 0 0 0 0 0 0 0 2 2 3 2 2 1
0 0 0 0 0 -0 0 0 0 0 0 0 0 0 0 0 0 0 0 0 0 0 0 0 1 1 1 1 1 1 1 1
0 0 0 0 -0 0 0 0 0 0 0 0 0 0 0 0 0 0 0 0 0 0 0 0 1 1 1 1 1 1 1 1
0 0 0 0 0 0 0 0 0 0 0 0 0 0 0 0 0 -0 0 0 0 0 0 0 0 1 2 2 1 1 1 1
0 0 0 0 0 0 0 0 0 0 0 0 0 0 0 0 -0 -0 -0 0 0 0 0 0 0 0 0 0 1 1 1 1
0 0 0 0 0 0 0 0 0 0 0 0 0 -0 -0 -0 -0 -0 0 0 0 0 0 0 0 0 0 1 1 2 2 1
Wind_Speed_500mb
8 7 8 8 6 16 39 42 17 7 16 8 5 11 6 20 24 26 41 47 49 49 47 45 41 42 44 45 45 43 42 41
8 6 10 7 16 21 20 14 18 21 11 14 5 5 9 15 16 22 27 37 43 46 45 45 44 41 41 44 44 44 44 42
6 6 10 10 25 28 13 11 22 4 10 18 34 15 13 12 13 15 18 18 34 41 42 43 43 43 41 40 43 44 44 43
2 6 11 13 26 17 18 23 17 28 18 12 30 29 25 6 9 22 11 11 18 36 39 40 42 44 43 40 40 42 44 44
5 5 9 7 22 17 12 22 27 10 7 5 31 25 22 21 9 13 14 13 16 23 38 39 41 44 46 45 41 41 44 45
3 1 7 9 10 25 28 10 10 12 7 9 27 26 15 15 14 10 17 21 21 24 33 44 44 44 46 50 50 45 44 46
6 3 12 9 9 12 6 25 13 18 12 13 19 16 13 15 12 7 5 18 30 31 29 33 43 46 47 49 54 53 49 48
10 2 7 10 10 14 8 22 14 32 20 21 21 22 18 13 15 11 8 5 20 35 34 34 38 45 51 52 57 62 60 55
10 12 14 9 14 10 3 10 22 27 31 29 28 22 20 25 27 28 27 14 3 22 39 38 40 43 51 57 61 66 67 63
13 19 12 9 24 11 14 35 32 40 37 34 33 30 25 20 26 28 30 31 24 21 25 44 51 47 47 57 64 69 71 70
33 31 36 17 21 14 34 33 30 34 37 34 31 29 28 32 32 29 27 25 28 24 29 33 46 52 49 48 60 66 70 72
26 38 21 7 5 11 28 40 45 46 53 53 45 44 40 35 42 40 31 33 30 31 27 34 36 41 48 45 44 58 68 70
6 12 4 11 14 7 37 44 40 39 35 28 23 26 25 33 47 51 46 39 38 36 25 31 37 40 40 46 47 48 56 66
11 9 7 6 13 17 52 25 40 45 47 48 46 44 36 27 22 31 50 44 40 42 39 29 37 39 48 46 47 48 52 55
14 7 6 9 10 24 31 38 39 46 54 56 47 41 48 41 35 27 20 28 39 42 51 44 40 43 45 47 50 52 54 56
9 9 9 4 3 12 36 47 31 41 53 61 56 57 57 54 45 32 25 19 17 29 46 57 53 47 51 52 51 54 58 61
9 9 5 8 5 7 13 33 31 40 47 56 65 64 64 59 65 57 40 34 33 28 23 48 64 60 55 59 60 64 65 67
10 9 3 11 7 8 8 10 21 31 46 61 81 82 84 84 79 73 66 58 51 51 43 34 47 71 73 71 67 65 70 74
10 9 8 3 3 8 3 7 18 34 44 53 63 82 86 86 85 82 77 64 61 59 59 51 43 47 71 76 78 73 77 77
12 8 8 7 8 5 4 10 13 42 53 59 66 76 73 79 84 82 77 71 65 61 64 62 54 52 50 74 85 86 76 71
Wind_Direction_500mb
86 95 170 233 273 294 297 310 293 210 55 62 60 71 123 138 133 148 179 183 183 185 186 185 185 184 182 183 185 185 184 183
83 212 254 239 290 290 314 341 18 123 60 75 101 75 117 124 140 150 170 189 190 190 192 192 189 188 188 187 188 189 188 189
51 277 278 266 297 328 341 3 357 125 64 76 70 90 114 104 123 131 157 171 202 199 198 199 199 196 192 192 193 193 193 194
227 277 276 292 352 13 15 7 34 65 81 83 70 54 60 129 169 170 160 169 186 208 208 207 208 207 203 198 199 198 198 199
215 258 298 331 347 26 346 15 12 88 88 109 31 36 48 47 116 202 219 222 208 200 212 215 218 216 213 210 206 206 205 205
263 248 278 322 13 14 24 356 7 24 30 19 38 36 34 61 98 176 220 237 239 213 212 217 220 222 222 219 216 211 211 211
263 65 277 319 20 23 341 356 12 7 34 28 353 10 31 48 78 75 252 253 232 217 221 226 228 227 225 225 223 220 215 215
221 236 284 312 327 339 10 342 325 329 317 331 325 326 333 334 331 345 29 303 243 230 229 225 234 234 232 228 227 223 222 219
281 288 339 296 298 323 329 297 273 290 306 319 312 309 301 290 296 296 298 299 267 253 250 242 240 235 239 233 232 229 225 223
295 309 312 300 306 307 272 271 283 285 280 279 288 292 283 283 283 283 285 294 275 253 257 242 246 243 246 242 238 231 228 225
314 315 313 302 248 254 280 290 296 294 284 270 268 268 276 281 277 272 274 278 282 259 248 255 246 248 249 247 248 240 232 230
316 305 301 263 298 188 283 313 310 304 298 293 299 297 286 275 278 271 271 274 277 266 254 240 249 252 254 252 256 249 241 237
299 294 316 230 346 262 352 346 3 18 30 48 14 340 347 303 292 284 280 274 280 281 267 246 238 247 252 254 253 255 252 243
276 353 10 49 297 309 348 25 57 52 48 48 46 40 37 20 347 301 273 273 261 274 271 259 243 242 247 252 255 257 254 249
317 23 344 59 298 337 0 80 56 42 33 29 29 28 21 15 5 1 341 276 264 261 261 268 256 238 244 254 253 257 252 250
271 296 17 51 335 13 65 70 50 32 21 21 14 7 0 358 351 342 328 328 311 268 252 251 262 248 241 245 252 251 253 249
254 268 335 293 114 90 78 63 42 22 12 11 3 358 353 344 343 335 320 294 292 294 268 247 250 247 234 241 251 251 249 248
293 275 190 284 81 113 57 56 36 14 14 8 3 356 351 347 339 333 326 311 288 276 273 265 251 252 249 247 248 259 257 251
238 305 306 260 105 191 114 58 2 11 12 7 3 356 348 342 336 328 323 318 307 291 271 263 261 255 249 247 246 252 250 248
289 4 274 40 272 268 255 332 347 357 2 358 354 354 346 342 338 333 323 318 312 303 285 271 264 265 261 250 248 248 248 251
Wind_Speed_850mb
8 7 8 8 6 16 39 42 17 7 16 8 5 11 6 20 24 26 41 47 49 49 47 45 41 42 44 45 45 43 42 41
8 6 10 7 16 21 20 14 18 21 11 14 5 5 9 15 16 22 27 37 43 46 45 45 44 41 41 44 44 44 44 42
6 6 10 10 25 28 13 11 22 4 10 18 34 15 13 12 13 15 18 18 34 41 42 43 43 43 41 40 43 44 44 43
2 6 11 13 26 17 18 23 17 28 18 12 30 29 25 6 9 22 11 11 18 36 39 40 42 44 43 40 40 42 44 44
5 5 9 7 22 17 12 22 27 10 7 5 31 25 22 21 9 13 14 13 16 23 38 39 41 44 46 45 41 41 44 45
3 1 7 9 10 25 28 10 10 12 7 9 27 26 15 15 14 10 17 21 21 24 33 44 44 44 46 50 50 45 44 46
6 3 12 9 9 12 6 25 13 18 12 13 19 16 13 15 12 7 5 18 30 31 29 33 43 46 47 49 54 53 49 48
10 2 7 10 10 14 8 22 14 32 20 21 21 22 18 13 15 11 8 5 20 35 34 34 38 45 51 52 57 62 60 55
10 12 14 9 14 10 3 10 22 27 31 29 28 22 20 25 27 28 27 14 3 22 39 38 40 43 51 57 61 66 67 63
13 19 12 9 24 11 14 35 32 40 37 34 33 30 25 20 26 28 30 31 24 21 25 44 51 47 47 57 64 69 71 70
33 31 36 17 21 14 34 33 30 34 37 34 31 29 28 32 32 29 27 25 28 24 29 33 46 52 49 48 60 66 70 72
26 38 21 7 5 11 28 40 45 46 53 53 45 44 40 35 42 40 31 33 30 31 27 34 36 41 48 45 44 58 68 70
6 12 4 11 14 7 37 44 40 39 35 28 23 26 25 33 47 51 46 39 38 36 25 31 37 40 40 46 47 48 56 66
11 9 7 6 13 17 52 25 40 45 47 48 46 44 36 27 22 31 50 44 40 42 39 29 37 39 48 46 47 48 52 55
14 7 6 9 10 24 31 38 39 46 54 56 47 41 48 41 35 27 20 28 39 42 51 44 40 43 45 47 50 52 54 56
9 9 9 4 3 12 36 47 31 41 53 61 56 57 57 54 45 32 25 19 17 29 46 57 53 47 51 52 51 54 58 61
9 9 5 8 5 7 13 33 31 40 47 56 65 64 64 59 65 57 40 34 33 28 23 48 64 60 55 59 60 64 65 67
10 9 3 11 7 8 8 10 21 31 46 61 81 82 84 84 79 73 66 58 51 51 43 34 47 71 73 71 67 65 70 74
10 9 8 3 3 8 3 7 18 34 44 53 63 82 86 86 85 82 77 64 61 59 59 51 43 47 71 76 78 73 77 77
12 8 8 7 8 5 4 10 13 42 53 59 66 76 73 79 84 82 77 71 65 61 64 62 54 52 50 74 85 86 76 71
Wind_Direction_850mb
86 95 170 233 273 294 297 310 293 210 55 62 60 71 123 138 133 148 179 183 183 185 186 185 185 184 182 183 185 185 184 183
83 212 254 239 290 290 314 341 18 123 60 75 101 75 117 124 140 150 170 189 190 190 192 192 189 188 188 187 188 189 188 189
51 277 278 266 297 328 341 3 357 125 64 76 70 90 114 104 123 131 157 171 202 199 198 199 199 196 192 192 193 193 193 194
227 277 276 292 352 13 15 7 34 65 81 83 70 54 60 129 169 170 160 169 186 208 208 207 208 207 203 198 199 198 198 199
215 258 298 331 347 26 346 15 12 88 88 109 31 36 48 47 116 202 219 222 208 200 212 215 218 216 213 210 206 206 205 205
263 248 278 322 13 14 24 356 7 24 30 19 38 36 34 61 98 176 220 237 239 213 212 217 220 222 222 219 216 211 211 211
263 65 277 319 20 23 341 356 12 7 34 28 353 10 31 48 78 75 252 253 232 217 221 226 228 227 225 225 223 220 215 215
221 236 284 312 327 339 10 342 325 329 317 331 325 326 333 334 331 345 29 303 243 230 229 225 234 234 232 228 227 223 222 219
281 288 339 296 298 323 329 297 273 290 306 319 312 309 301 290 296 296 298 299 267 253 250 242 240 235 239 233 232 229 225 223
295 309 312 300 306 307 272 271 283 285 280 279 288 292 283 283 283 283 285 294 275 253 257 242 246 243 246 242 238 231 228 225
314 315 313 302 248 254 280 290 296 294 284 270 268 268 276 281 277 272 274 278 282 259 248 255 246 248 249 247 248 240 232 230
316 305 301 263 298 188 283 313 310 304 298 293 299 297 286 275 278 271 271 274 277 266 254 240 249 252 254 252 256 249 241 237
299 294 316 230 346 262 352 346 3 18 30 48 14 340 347 303 292 284 280 274 280 281 267 246 238 247 252 254 253 255 252 243
276 353 10 49 297 309 348 25 57 52 48 48 46 40 37 20 347 301 273 273 261 274 271 259 243 242 247 252 255 257 254 249
317 23 344 59 298 337 0 80 56 42 33 29 29 28 21 15 5 1 341 276 264 261 261 268 256 238 244 254 253 257 252 250
271 296 17 51 335 13 65 70 50 32 21 21 14 7 0 358 351 342 328 328 311 268 252 251 262 248 241 245 252 251 253 249
254 268 335 293 114 90 78 63 42 22 12 11 3 358 353 344 343 335 320 294 292 294 268 247 250 247 234 241 251 251 249 248
293 275 190 284 81 113 57 56 36 14 14 8 3 356 351 347 339 333 326 311 288 276 273 265 251 252 249 247 248 259 257 251
238 305 306 260 105 191 114 58 2 11 12 7 3 356 348 342 336 328 323 318 307 291 271 263 261 255 249 247 246 252 250 248
289 4 274 40 272 268 255 332 347 357 2 358 354 354 346 342 338 333 323 318 312 303 285 271 264 265 261 250 248 248 248 251